Flag for U.S.A. Weather past 2 weeks in Knoxville, Tennessee, U.S.A.

Now
22 °F

Partly cloudy.


Feels Like: 11 °F
Forecast: 17 / 37 °F
Wind: 10 mph from Northeast

Location: McGhee Tyson Airport

Current Time: Mar 5, 2015 at 10:30:19 PM

Latest Report: Mar 5, 2015 at 9:53 PM


Visibility: 10 mi

Pressure: 30.46 "Hg

Humidity: 82%

Dew point: 17 °F

Location of KnoxvilleLocation

Historic Weather in Knoxville — Graph

°F

Knoxville temperature yesterday

Maximum temperature yesterday: 71 °F (at 2:53 PM)
Minimum temperature yesterday: 41 °F (at 11:53 PM)
Average temperature yesterday: 60 °F

Past Weeks' High & Low Weather Summary

 TemperatureHumidityPressure
High71 °F (Mar 4, 2:53 PM)100% (Feb 22, 12:53 AM)30.63 "Hg (Feb 22, 12:53 AM)
Low4 °F (Feb 19, 6:53 AM)45% (Feb 28, 2:53 PM)29.76 "Hg (Mar 4, 5:53 PM)
Average33 °F80%30.22 "Hg
* Reported Feb 18 8:53 PM — Mar 5 8:53 PM, Knoxville, Weather by CustomWeather, © 2015

Note: Actual official high and low records may vary slightly from our data, if they occured in-between our weather recording intervals... More about our weather records

Advertising

Knoxville weather history for previous 24 hours

 ConditionsComfort  
Time TempWeatherWind HumidityBarometerVisibility
8:53 PM
Thu, Mar 5
23 °FMostly cloudy.15 mph81%30.45 "Hg10 mi
7:53 PM25 °FOvercast.16 mph81%30.42 "Hg10 mi
5:53 PM26 °FLight snow. Ice fog.13 mph84%30.38 "Hg5 mi
4:53 PM28 °FLight freezing rain. Overcast.13 mph81%30.34 "Hg10 mi
3:56 PM28 °FLight freezing rain. More clouds than sun.9 mph89%30.29 "Hg8 mi
2:53 PM29 °FLight rain. Ice fog.8 mph89%30.25 "Hg2 mi
1:53 PM30 °FMostly cloudy.12 mph89%30.19 "Hg10 mi
12:53 PM31 °FMostly cloudy.14 mph89%30.16 "Hg10 mi
11:54 AM32 °FLight rain. Mostly cloudy.13 mph92%30.11 "Hg10 mi
10:53 AM32 °FLight rain. Ice fog.9 mph92%30.16 "Hg4 mi
9:56 AM32 °FSleet. Ice fog.10 mph92%30.15 "Hg3 mi
8:53 AM34 °FLight rain. Fog.16 mph88%30.07 "Hg2 mi
7:53 AM36 °FLight rain. Fog.13 mph92%30.03 "Hg2 mi
6:53 AM36 °FLight rain. Fog.9 mph92%30.02 "Hg4 mi
5:53 AM36 °FHeavy rain. Fog.8 mph92%30.00 "Hg4 mi
4:53 AM36 °FLight rain. Fog.8 mph92%30.00 "Hg6 mi
3:53 AM37 °FHeavy rain. Fog.12 mph93%29.95 "Hg4 mi
2:53 AM38 °FLight rain. Low clouds.10 mph90%29.97 "Hg10 mi
1:53 AM39 °FLight rain. Mostly cloudy.15 mph93%29.97 "Hg10 mi
1:03 AM40 °FLight rain. Overcast.13 mph93%29.98 "Hg9 mi
12:53 AM40 °FLight rain. Mostly cloudy.8 mph93%29.96 "Hg10 mi
11:53 PM
Wed, Mar 4
41 °FLight rain. Overcast.9 mph96%29.99 "Hg9 mi
10:53 PM42 °FRain. Fog.9 mph92%30.01 "Hg4 mi
Weather by CustomWeather, © 2015

See weather overviewHow to use our weather pages